Location: Newark
(54.6833°N, 25.2833°E)
Time: 11:32:48
(UTC+00:00)

Transit 2A - All Passes

Search period start: 21 January 2021 00:00
Search period end: 31 January 2021 00:00
Orbit: 598 x 960 km, 66.7° (Epoch: 20 January)

Date Brightness Start Highest point End Pass type
(mag) Time Alt. Az. Time Alt. Az. Time Alt. Az.
21 Jan - 02:31:09 10° S 02:36:13 32° ESE 02:40:54 10° NE visible
21 Jan - 04:13:32 10° SW 04:19:12 67° NW 04:24:20 10° NE visible
21 Jan - 05:58:39 10° WNW 06:03:13 27° NNW 06:07:26 10° NE daylight
21 Jan - 07:44:04 10° NW 07:47:56 21° N 07:51:32 10° NE daylight
21 Jan - 09:27:56 10° NW 09:32:27 35° NNE 09:36:37 10° E daylight
21 Jan - 11:11:14 10° NW 11:15:57 62° SW 11:20:17 10° SSE daylight
21 Jan - 12:56:54 10° W 12:58:01 11° WSW 12:59:06 10° WSW daylight
22 Jan - 01:57:39 10° SSE 02:02:13 25° ESE 02:06:28 10° ENE visible
22 Jan - 03:39:15 10° SW 03:44:59 84° NW 03:50:10 10° NE visible
22 Jan - 05:24:00 10° W 05:28:48 30° NNW 05:33:13 10° NE visible
22 Jan - 07:09:35 10° NW 07:13:26 21° N 07:17:02 10° NE daylight
22 Jan - 08:53:44 10° NW 08:58:05 30° NNE 09:02:06 10° E daylight
22 Jan - 10:37:01 10° NW 10:41:48 85° SW 10:46:14 10° SE daylight
22 Jan - 12:21:26 10° WNW 12:24:09 16° WSW 12:26:47 10° SW daylight
23 Jan - 01:24:26 10° SSE 01:28:14 18° ESE 01:31:50 10° ENE visible
23 Jan - 03:05:05 10° SSW 03:10:48 77° SE 03:15:59 10° NE visible
23 Jan - 04:49:22 10° W 04:54:25 35° NNW 04:59:02 10° NE visible
23 Jan - 06:35:02 10° NW 06:38:57 21° N 06:42:36 10° NE daylight
23 Jan - 08:19:30 10° NW 08:23:39 26° NNE 08:27:32 10° ENE daylight
23 Jan - 10:02:49 10° NW 10:07:37 73° NE 10:12:03 10° SE daylight
23 Jan - 11:46:42 10° WNW 11:50:14 22° WSW 11:53:36 10° SSW daylight
24 Jan - 00:51:43 10° SE 00:54:19 13° ESE 00:56:49 10° ENE visible
24 Jan - 02:31:02 10° SSW 02:36:40 59° SE 02:41:46 10° NE visible
24 Jan - 04:14:49 10° WSW 04:20:05 42° NW 04:24:52 10° NE visible
24 Jan - 06:00:24 10° WNW 06:04:27 22° N 06:08:14 10° NE daylight
24 Jan - 07:45:13 10° NW 07:49:13 23° NNE 07:52:57 10° ENE daylight
24 Jan - 09:28:38 10° NW 09:33:22 56° NE 09:37:45 10° ESE daylight
24 Jan - 11:12:13 10° NW 11:16:16 30° WSW 11:20:06 10° S daylight
25 Jan - 01:57:08 10° SSW 02:02:34 45° ESE 02:07:30 10° NE visible
25 Jan - 03:40:20 10° WSW 03:45:47 51° NW 03:50:43 10° NE visible
25 Jan - 05:25:46 10° WNW 05:29:59 23° NNW 05:33:56 10° NE visible
25 Jan - 07:10:53 10° NW 07:14:45 22° N 07:18:22 10° ENE daylight
25 Jan - 08:54:27 10° NW 08:59:06 44° NE 09:03:22 10° ESE daylight
25 Jan - 10:37:51 10° NW 10:42:15 42° WSW 10:46:22 10° S daylight
26 Jan - 01:23:24 10° S 01:28:30 34° ESE 01:33:10 10° NE visible
26 Jan - 03:05:55 10° SW 03:11:31 64° NW 03:16:33 10° NE visible
26 Jan - 04:51:06 10° WNW 04:55:33 26° NNW 04:59:40 10° NE visible
26 Jan - 06:36:29 10° NW 06:40:16 21° N 06:43:49 10° NE daylight
26 Jan - 08:20:16 10° NW 08:24:45 36° NNE 08:28:55 10° E daylight
26 Jan - 10:03:34 10° NW 10:08:11 58° SW 10:12:28 10° SSE daylight
27 Jan - 00:49:52 10° SSE 00:54:28 26° ESE 00:58:45 10° ENE visible
27 Jan - 02:31:37 10° SW 02:37:17 81° NW 02:42:24 10° NE visible
27 Jan - 04:16:27 10° W 04:21:08 29° NNW 04:25:27 10° NE visible
27 Jan - 06:02:01 10° NW 06:05:46 20° N 06:09:18 10° NE daylight
27 Jan - 07:46:05 10° NW 07:50:23 30° NNE 07:54:23 10° E daylight
27 Jan - 09:29:20 10° NW 09:34:03 80° SW 09:38:26 10° SE daylight
27 Jan - 11:13:55 10° WNW 11:16:21 14° WSW 11:18:44 10° SW daylight
28 Jan - 00:16:36 10° SSE 00:20:30 19° ESE 00:24:10 10° ENE visible
28 Jan - 01:57:26 10° SW 02:03:06 80° SE 02:08:13 10° NE visible
28 Jan - 03:41:49 10° W 03:46:45 34° NNW 03:51:15 10° NE visible
28 Jan - 05:27:27 10° NW 05:31:17 20° N 05:34:51 10° NE visible
28 Jan - 07:11:50 10° NW 07:15:59 26° NNE 07:19:50 10° E daylight
28 Jan - 08:55:08 10° NW 08:59:52 77° NE 09:04:17 10° SE daylight
28 Jan - 10:39:06 10° WNW 10:42:27 20° WSW 10:45:40 10° SSW daylight
28 Jan - 23:43:46 10° SE 23:46:33 14° ESE 23:49:15 10° ENE visible
29 Jan - 01:23:22 10° SSW 01:28:57 62° SE 01:34:00 10° NE visible
29 Jan - 03:07:15 10° WSW 03:12:23 40° NW 03:17:05 10° NE visible
29 Jan - 04:52:52 10° WNW 04:56:47 21° N 05:00:28 10° NE visible
29 Jan - 06:37:34 10° NW 06:41:32 23° NNE 06:45:14 10° ENE daylight
29 Jan - 08:20:56 10° NW 08:25:39 59° NE 08:30:01 10° ESE daylight
29 Jan - 10:04:34 10° WNW 10:08:29 28° WSW 10:12:13 10° S daylight
30 Jan - 00:49:25 10° SSW 00:54:50 47° ESE 00:59:45 10° NE visible
30 Jan - 02:32:44 10° WSW 02:38:05 49° NW 02:42:56 10° NE visible
30 Jan - 04:18:13 10° WNW 04:22:20 23° NNW 04:26:09 10° NE visible
30 Jan - 06:03:15 10° NW 06:07:04 22° NNE 06:10:39 10° ENE daylight
30 Jan - 07:46:46 10° NW 07:51:22 46° NE 07:55:38 10° ESE daylight
30 Jan - 09:30:11 10° NW 09:34:28 39° WSW 09:38:31 10° S daylight
